Tracking 23610 objects as of 19-Sep-2021
HD Live streaming from Space Station
objects crossing your sky now

STARLINK-2500

Track STARLINK-2500 now!
10-day predictions
STARLINK-2500 is classified as:


NORAD ID: 48485
Int'l Code: 2021-040BK
Perigee: 553.7 km
Apogee: 555.0 km
Inclination: 53.1 °
Period: 95.6 minutes
Semi major axis: 6925 km
RCS: Unknown
Launch date: May 9, 2021
Source: United States (US)
Launch site: AIR FORCE EASTERN TEST RANGE (AFETR)
aabbcc
Your satellite tracking list
Your tracking list is empty




NASA's NSSDC Master Catalog

Two Line Element Set (TLE):
1 48485U 21040BK  21261.89695415  .00000028  00000-0  20761-4 0  9995
2 48485  53.0562 331.5027 0000983 138.3697 221.7367 15.06401968 21528
Source of the keplerian elements: AFSPC